Overview Statistics Trail Chart Weather Telemetry Raw packets
 

This is the latest recevied weather packets stored in our database for station/object OM5ZU-10. If no packets are shown the sender has not sent any weather packets the latest 10 day(s).

<< 30 31 32 33 34 35 36 >>
Time Temp. Humidity Pressure Rain* Wind** Luminosity Snow
1787865385 20° C 64% 1018 hPa - - - -
1787864485 20° C 64% 1017.9 hPa - - - -
1787863586 20° C 64% 1017.8 hPa - - - -
1787862684 19.44° C 70% 1017.6 hPa - - - -
1787861784 20° C 64% 1017.6 hPa - - - -
1787860884 21.11° C 61% 1017.6 hPa - - - -
1787859984 21.11° C 60% 1017.3 hPa - - - -
1787859084 21.67° C 60% 1017.2 hPa - - - -
1787858183 22.22° C 60% 1017 hPa - - - -
1787857283 21.67° C 64% 1017.1 hPa - - - -
1787856386 22.78° C 57% 1016.9 hPa - - - -
1787855483 23.33° C 56% 1016.9 hPa - - - -
1787854583 22.22° C 61% 1017 hPa - - - -
1787853683 22.22° C 63% 1017 hPa - - - -
1787852782 23.89° C 56% 1016.9 hPa - - - -
1787851882 25° C 52% 1016.7 hPa - - - -
1787850982 25.56° C 52% 1016.7 hPa - - - -
1787850082 26.11° C 50% 1016.6 hPa - - - -
1787849973 26.67° C 49% 1016.6 hPa - - - -
1787849065 26.67° C 49% 1016.6 hPa - - - -
1787848165 27.78° C 47% 1016.7 hPa - - - -
1787847265 28.89° C 44% 1016.6 hPa - - - -
1787846364 27.78° C 46% 1016.8 hPa - - - -
1787845464 28.33° C 44% 1016.8 hPa - - - -
1787844569 30° C 43% 1016.9 hPa - - - -

* Rain since midnight (hover to see other rain measurements)
** Current wind speed in m/s (hover to see current wind gust speed)